Time,TemperatureF,DewpointF,PressureIn,WindDirection,WindDirectionDegrees,WindSpeedMPH,WindSpeedGustMPH,Humidity,HourlyPrecipIn,Conditions,Clouds,dailyrainin,SoftwareType,DateUTC
2013-03-28 00:00:00,37.0,37.0,29.84,NW,315,8.0,14.0,100,0.00,,,0.00,Weather View 32 v70,2013-03-28 04:00:00,
2013-03-28 00:01:00,37.0,37.0,29.84,NW,315,8.0,14.0,100,0.00,,,0.00,Weather View 32 v70,2013-03-28 04:01:00,
2013-03-28 00:31:00,37.0,37.0,29.85,NNW,337,7.0,14.0,100,0.00,,,0.00,Weather View 32 v70,2013-03-28 04:31:00,
2013-03-28 01:00:00,36.0,36.0,29.85,NNW,337,9.0,13.0,100,0.00,,,0.00,Weather View 32 v70,2013-03-28 05:00:00,
2013-03-28 01:02:00,36.0,36.0,29.85,NNW,337,9.0,13.0,100,0.00,,,0.00,Weather View 32 v70,2013-03-28 05:02:00,
2013-03-28 01:31:00,36.0,36.0,29.85,NNW,337,6.0,13.0,100,0.00,,,0.00,Weather View 32 v70,2013-03-28 05:31:00,
2013-03-28 02:00:00,36.0,36.0,29.85,NW,315,5.0,12.0,100,0.00,,,0.00,Weather View 32 v70,2013-03-28 06:00:00,
2013-03-28 02:01:00,36.0,36.0,29.85,NW,315,5.0,12.0,100,0.00,,,0.00,Weather View 32 v70,2013-03-28 06:01:00,
2013-03-28 02:32:00,35.0,35.0,29.85,NNW,337,9.0,12.0,100,0.00,,,0.00,Weather View 32 v70,2013-03-28 06:32:00,
2013-03-28 03:00:00,35.0,35.0,29.85,NNW,337,8.0,13.0,100,0.00,,,0.00,Weather View 32 v70,2013-03-28 07:00:00,
2013-03-28 03:02:00,35.0,35.0,29.85,NNW,337,8.0,13.0,100,0.00,,,0.00,Weather View 32 v70,2013-03-28 07:02:00,
2013-03-28 03:30:00,35.0,35.0,29.86,NNW,337,9.0,13.0,100,0.00,,,0.00,Weather View 32 v70,2013-03-28 07:30:00,
2013-03-28 05:02:00,33.0,33.0,29.87,NNW,337,7.0,13.0,100,0.00,,,0.00,Weather View 32 v70,2013-03-28 09:02:00,
2013-03-28 06:02:00,34.0,34.0,29.88,NNW,337,7.0,12.0,100,0.00,,,0.00,Weather View 32 v70,2013-03-28 10:02:00,
2013-03-28 06:33:00,34.0,34.0,29.87,NNW,337,9.0,12.0,100,0.00,,,0.00,Weather View 32 v70,2013-03-28 10:33:00,
2013-03-28 07:01:00,34.0,34.0,29.88,WNW,292,4.0,11.0,100,0.00,,,0.00,Weather View 32 v70,2013-03-28 11:01:00,
2013-03-28 07:31:00,35.0,35.0,29.89,NW,315,5.0,10.0,100,0.00,,,0.00,Weather View 32 v70,2013-03-28 11:31:00,
2013-03-28 08:31:00,38.0,38.0,29.90,NNW,337,9.0,12.0,100,0.00,,,0.00,Weather View 32 v70,2013-03-28 12:31:00,
2013-03-28 08:37:00,38.0,38.0,29.90,NNW,337,9.0,12.0,100,0.00,,,0.00,Weather View 32 v70,2013-03-28 12:37:00,
2013-03-28 09:01:00,39.0,39.0,29.88,NW,315,13.0,13.0,100,0.00,,,0.00,Weather View 32 v70,2013-03-28 13:01:00,
2013-03-28 09:30:00,39.0,39.0,29.89,North,360,10.0,13.0,100,0.00,,,0.00,Weather View 32 v70,2013-03-28 13:30:00,
2013-03-28 10:01:00,40.0,40.0,29.88,NNW,337,12.0,13.0,100,0.00,,,0.00,Weather View 32 v70,2013-03-28 14:01:00,
2013-03-28 10:30:00,41.0,39.9,29.89,North,360,7.0,12.0,96,0.00,,,0.00,Weather View 32 v70,2013-03-28 14:30:00,
2013-03-28 10:31:00,41.0,39.9,29.89,North,360,7.0,12.0,96,0.00,,,0.00,Weather View 32 v70,2013-03-28 14:31:00,
2013-03-28 11:03:00,42.0,39.0,29.89,WNW,292,7.0,14.0,89,0.00,,,0.00,Weather View 32 v70,2013-03-28 15:03:00,
2013-03-28 11:30:00,44.0,37.9,29.88,WNW,292,9.0,15.0,79,0.00,,,0.00,Weather View 32 v70,2013-03-28 15:30:00,
2013-03-28 11:33:00,44.0,37.9,29.88,WNW,292,9.0,15.0,79,0.00,,,0.00,Weather View 32 v70,2013-03-28 15:33:00,
2013-03-28 12:30:00,46.0,33.7,29.87,NNW,337,7.0,16.0,62,0.00,,,0.00,Weather View 32 v70,2013-03-28 16:30:00,
2013-03-28 12:31:00,46.0,33.7,29.87,NNW,337,7.0,16.0,62,0.00,,,0.00,Weather View 32 v70,2013-03-28 16:31:00,
2013-03-28 13:02:00,46.0,32.9,29.86,NW,315,11.0,16.0,60,0.00,,,0.00,Weather View 32 v70,2013-03-28 17:02:00,
2013-03-28 13:30:00,47.0,33.8,29.86,North,360,7.0,16.0,60,0.00,,,0.00,Weather View 32 v70,2013-03-28 17:30:00,
2013-03-28 13:31:00,47.0,33.8,29.86,North,360,7.0,16.0,60,0.00,,,0.00,Weather View 32 v70,2013-03-28 17:31:00,
2013-03-28 14:02:00,44.0,41.3,29.87,NNW,337,9.0,22.0,90,0.00,,,0.00,Weather View 32 v70,2013-03-28 18:02:00,
2013-03-28 14:31:00,47.0,37.7,29.86,ENE,67,2.0,22.0,70,0.00,,,0.00,Weather View 32 v70,2013-03-28 18:31:00,
2013-03-28 15:02:00,45.0,38.2,29.86,SE,135,6.0,12.0,77,0.00,,,0.00,Weather View 32 v70,2013-03-28 19:02:00,
2013-03-28 15:31:00,45.0,38.9,29.86,ESE,112,4.0,10.0,79,0.00,,,0.00,Weather View 32 v70,2013-03-28 19:31:00,
2013-03-28 16:02:00,44.0,41.0,29.84,North,360,11.0,20.0,89,0.00,,,0.00,Weather View 32 v70,2013-03-28 20:02:00,
2013-03-28 16:31:00,48.0,41.5,29.84,North,360,5.0,20.0,78,0.00,,,0.00,Weather View 32 v70,2013-03-28 20:31:00,
2013-03-28 17:01:00,49.0,33.5,29.83,NNW,337,10.0,15.0,55,0.00,,,0.00,Weather View 32 v70,2013-03-28 21:01:00,
2013-03-28 17:31:00,48.0,33.5,29.84,North,360,2.0,12.0,57,0.00,,,0.00,Weather View 32 v70,2013-03-28 21:31:00,
2013-03-28 18:01:00,47.0,32.5,29.84,NW,315,4.0,12.0,57,0.00,,,0.00,Weather View 32 v70,2013-03-28 22:01:00,
2013-03-28 18:31:00,46.0,34.9,29.85,NW,315,3.0,9.0,65,0.00,,,0.00,Weather View 32 v70,2013-03-28 22:31:00,
2013-03-28 19:02:00,44.0,34.5,29.86,NNW,337,3.0,6.0,69,0.00,,,0.00,Weather View 32 v70,2013-03-28 23:02:00,
2013-03-28 19:08:00,44.0,34.5,29.86,NNW,337,3.0,6.0,69,0.00,,,0.00,Weather View 32 v70,2013-03-28 23:08:00,
2013-03-28 19:31:00,42.0,35.6,29.88,NW,315,5.0,6.0,78,0.00,,,0.00,Weather View 32 v70,2013-03-28 23:31:00,
2013-03-28 20:00:00,40.0,35.2,29.90,NNW,337,5.0,7.0,83,0.00,,,0.00,Weather View 32 v70,2013-03-29 00:00:00,
2013-03-28 20:01:00,40.0,35.2,29.90,NNW,337,5.0,7.0,83,0.00,,,0.00,Weather View 32 v70,2013-03-29 00:01:00,
2013-03-28 20:32:00,40.0,35.2,29.92,NNW,337,6.0,7.0,83,0.00,,,0.00,Weather View 32 v70,2013-03-29 00:32:00,
2013-03-28 21:00:00,41.0,34.0,29.90,NNW,337,7.0,9.0,76,0.00,,,0.00,Weather View 32 v70,2013-03-29 01:00:00,
2013-03-28 21:01:00,41.0,34.0,29.90,NNW,337,7.0,9.0,76,0.00,,,0.00,Weather View 32 v70,2013-03-29 01:01:00,
2013-03-28 21:32:00,40.0,34.6,29.91,WNW,292,8.0,9.0,81,0.00,,,0.00,Weather View 32 v70,2013-03-29 01:32:00,
2013-03-28 22:00:00,39.0,36.3,29.92,NNW,337,6.0,10.0,90,0.00,,,0.00,Weather View 32 v70,2013-03-29 02:00:00,
2013-03-28 22:01:00,39.0,36.3,29.92,NNW,337,6.0,10.0,90,0.00,,,0.00,Weather View 32 v70,2013-03-29 02:01:00,
2013-03-28 22:31:00,39.0,36.3,29.92,WNW,292,5.0,10.0,90,0.00,,,0.00,Weather View 32 v70,2013-03-29 02:31:00,
2013-03-28 23:00:00,37.0,37.0,29.93,NW,315,5.0,9.0,100,0.00,,,0.00,Weather View 32 v70,2013-03-29 03:00:00,
2013-03-28 23:01:00,37.0,37.0,29.93,NW,315,5.0,9.0,100,0.00,,,0.00,Weather View 32 v70,2013-03-29 03:01:00,
2013-03-28 23:31:00,37.0,37.0,29.93,NW,315,5.0,9.0,100,0.00,,,0.00,Weather View 32 v70,2013-03-29 03:31:00,